{"data":{"norad_id":48139,"epoch":"2026-05-25T01:26:17.691072Z","epoch_age_seconds":80259,"freshness":"FRESH","line1":"1 48139U 21027AZ  26145.05992698  .00001353  00000+0  55364-4 0  9991","line2":"2 48139  53.1582 157.5320 0001763  70.8104 289.3088 15.31706638284384","mean_motion":15.31706638,"eccentricity":0.0001763,"inclination_deg":53.1582,"raan_deg":157.532,"arg_perigee_deg":70.8104,"mean_anomaly_deg":289.3088,"bstar":5.5364e-5,"rev_number":28438,"period_min":94.012780533501,"perigee_km":469.51275423879,"apogee_km":471.92766129025,"semimajor_km":6848.8572077645,"source":"CELESTRAK","updated_at":"2026-05-25T13:38:16.650387Z"}}